SVA117 OLBA-LFMN

Flight info

Callsign SVA117
Flight time N/A
Altitude 34000
Route KAD UR219 KUKLA M31 LCA M601 EVENO UM601 ASTIS UP37 KOR UL53 KRK UL995 TIGRA DCT TOPNO DCT PEMAR DCT DOBIM R16 KERIT
Aircraft A333/H-SDE3GHIJ2J3J5M1RVWXY/LB2D1

Departure

Time 2026-04-28 16:32
Airport Beirut Rafic Hariri International Airport (OLBA)

Arrival

Time N/A
Airport Nice-Côte d'Azur Airport (LFMN)
Time Latitude Longitude Altitude Speed Heading
2026-04-28 16:05 33.82296 35.49115 59 ft 0 kts 55°
2026-04-28 16:17 33.82292 35.49107 58 ft 2 kts 55°
2026-04-28 16:17 33.82283 35.49092 58 ft 2 kts 55°
2026-04-28 16:18 33.82277 35.49082 57 ft 0 kts 55°
2026-04-28 16:18 33.82268 35.49069 57 ft 2 kts 24°
2026-04-28 16:18 33.82254 35.49066 57 ft 2 kts 350°
2026-04-28 16:18 33.82240 35.49072 56 ft 2 kts 316°
2026-04-28 16:19 33.82235 35.49078 57 ft 1 kts 306°
2026-04-28 16:19 33.82233 35.49081 57 ft 0 kts 307°
2026-04-28 16:28 33.82235 35.49077 56 ft 3 kts 307°
2026-04-28 16:28 33.82243 35.49063 56 ft 6 kts 300°
2026-04-28 16:28 33.82251 35.49028 55 ft 1 kts 273°
2026-04-28 16:29 33.82105 35.49031 54 ft 21 kts 176°
2026-04-28 16:29 33.81771 35.49059 55 ft 23 kts 177°
2026-04-28 16:30 33.81614 35.49068 58 ft 19 kts 176°
2026-04-28 16:30 33.81499 35.49017 60 ft 17 kts 212°
2026-04-28 16:30 33.81388 35.48929 63 ft 25 kts 212°
2026-04-28 16:30 33.81200 35.48769 66 ft 39 kts 212°
2026-04-28 16:31 33.81164 35.48679 69 ft 8 kts 348°
2026-04-28 16:31 33.81212 35.48666 68 ft 8 kts 346°
2026-04-28 16:31 33.81491 35.48588 61 ft 86 kts 347°
2026-04-28 16:31 33.82379 35.48341 90 ft 167 kts 342°
2026-04-28 16:32 33.83606 35.47942 704 ft 198 kts 341°
2026-04-28 16:32 33.86496 35.46818 2429 ft 214 kts 340°
2026-04-28 16:32 33.87941 35.46036 3609 ft 233 kts 320°
2026-04-28 16:33 33.88840 35.44387 4922 ft 244 kts 285°
2026-04-28 16:33 33.88926 35.42952 5800 ft 253 kts 263°
2026-04-28 16:33 33.87646 35.40350 7644 ft 267 kts 217°
2026-04-28 16:33 33.85846 35.39492 8916 ft 275 kts 185°
2026-04-28 16:34 33.83830 35.39795 10142 ft 280 kts 164°
2026-04-28 16:34 33.81943 35.40374 11295 ft 284 kts 165°
2026-04-28 16:34 33.80020 35.40957 12402 ft 288 kts 165°
2026-04-28 16:34 33.78081 35.41464 13405 ft 292 kts 175°
2026-04-28 16:35 33.76025 35.41184 14059 ft 307 kts 197°
2026-04-28 16:35 33.74136 35.39999 14007 ft 309 kts 221°
2026-04-28 16:35 33.72879 35.37952 14831 ft 308 kts 248°
2026-04-28 16:35 33.72516 35.35538 16217 ft 293 kts 272°
2026-04-28 16:36 33.72996 35.33218 17286 ft 291 kts 295°
2026-04-28 16:36 33.74248 35.31316 18081 ft 298 kts 320°
2026-04-28 16:36 33.76066 35.30073 18875 ft 303 kts 329°
2026-04-28 16:36 33.77732 35.28561 19687 ft 305 kts 316°
2026-04-28 16:37 33.79295 35.26852 20486 ft 308 kts 315°
2026-04-28 16:37 33.80860 35.25076 21290 ft 310 kts 314°
2026-04-28 16:37 33.82418 35.23289 22026 ft 313 kts 314°
2026-04-28 16:38 33.85713 35.19495 22619 ft 348 kts 314°
2026-04-28 16:38 33.87464 35.17482 23405 ft 349 kts 314°
2026-04-28 16:38 33.89039 35.15673 25608 ft 308 kts 314°
2026-04-28 16:38 33.90608 35.13862 26022 ft 323 kts 314°
2026-04-28 16:39 33.92295 35.11912 26192 ft 344 kts 314°
2026-04-28 16:39 33.94076 35.09856 26381 ft 364 kts 314°
2026-04-28 16:39 33.95941 35.07700 26643 ft 381 kts 314°
2026-04-28 16:39 33.97726 35.05642 28831 ft 339 kts 314°
2026-04-28 16:40 33.99371 35.03737 29598 ft 339 kts 314°
2026-04-28 16:40 34.01121 35.01708 29670 ft 358 kts 314°
2026-04-28 16:40 34.02968 34.99567 29851 ft 373 kts 314°
2026-04-28 16:40 34.04853 34.97382 30021 ft 385 kts 313°
2026-04-28 16:41 34.06813 34.95103 30164 ft 394 kts 314°
2026-04-28 16:41 34.06955 34.94937 30175 ft 395 kts 314°
2026-04-28 16:42 34.08637 34.92990 30306 ft 405 kts 314°
2026-04-28 16:42 34.10698 34.90598 30456 ft 416 kts 314°
2026-04-28 16:42 34.12828 34.88124 30604 ft 428 kts 314°
2026-04-28 16:42 34.15020 34.85576 30752 ft 438 kts 314°
2026-04-28 16:43 34.17238 34.82993 31128 ft 443 kts 314°
2026-04-28 16:43 34.19445 34.80425 31781 ft 440 kts 314°
2026-04-28 16:43 34.21629 34.77879 32420 ft 438 kts 314°
2026-04-28 16:43 34.23815 34.75330 32968 ft 437 kts 314°
2026-04-28 16:44 34.25733 34.72494 33445 ft 433 kts 301°
2026-04-28 16:44 34.27369 34.69441 33962 ft 431 kts 302°
2026-04-28 16:44 34.29019 34.66463 33980 ft 426 kts 302°
2026-04-28 16:45 34.32314 34.60570 34014 ft 427 kts 302°
2026-04-28 16:45 34.35656 34.54604 34006 ft 429 kts 302°
2026-04-28 16:46 34.39030 34.48576 34009 ft 442 kts 302°
2026-04-28 16:46 34.42546 34.42280 33992 ft 461 kts 303°
2026-04-28 16:47 34.46186 34.35796 34004 ft 473 kts 303°
2026-04-28 16:47 34.49881 34.29281 34005 ft 464 kts 303°
2026-04-28 16:48 34.53516 34.22854 33929 ft 462 kts 303°
2026-04-28 16:48 34.57143 34.16433 33957 ft 462 kts 303°
2026-04-28 16:49 34.60777 34.09987 33942 ft 463 kts 303°
2026-04-28 16:49 34.64398 34.03557 33937 ft 463 kts 303°
2026-04-28 16:50 34.68037 33.97124 33936 ft 463 kts 303°
2026-04-28 16:50 34.71655 33.90718 33935 ft 462 kts 303°
2026-04-28 16:51 34.74827 33.85035 33942 ft 463 kts 303°
2026-04-28 16:51 34.77899 33.79503 33936 ft 458 kts 302°
2026-04-28 16:52 34.81388 33.73189 33929 ft 444 kts 302°
2026-04-28 16:52 34.84810 33.67009 33919 ft 432 kts 302°
2026-04-28 16:53 34.87731 33.60803 34930 ft 407 kts 289°
2026-04-28 16:53 34.88670 33.57738 36038 ft 378 kts 289°
2026-04-28 16:53 34.89566 33.54743 36288 ft 382 kts 289°
2026-04-28 16:53 34.90471 33.51671 36579 ft 389 kts 289°
2026-04-28 16:54 34.91404 33.48487 36506 ft 407 kts 289°
2026-04-28 16:54 34.92371 33.45173 36267 ft 429 kts 289°
2026-04-28 16:54 34.93382 33.41703 35909 ft 451 kts 289°
2026-04-28 16:54 34.94093 33.39267 35791 ft 461 kts 289°
2026-04-28 16:55 34.95539 33.34298 35849 ft 470 kts 288°
2026-04-28 16:55 34.97731 33.26738 35896 ft 479 kts 288°
2026-04-28 16:55 34.98845 33.22883 36047 ft 478 kts 288°
2026-04-28 16:56 34.99952 33.19046 36230 ft 477 kts 288°
2026-04-28 16:56 35.01043 33.15258 36381 ft 477 kts 288°
2026-04-28 16:56 35.02140 33.11441 36564 ft 476 kts 288°
2026-04-28 16:56 35.03228 33.07650 36714 ft 476 kts 288°
2026-04-28 16:57 35.04328 33.03814 36873 ft 475 kts 288°
2026-04-28 16:57 35.05410 33.00031 37017 ft 475 kts 288°
2026-04-28 16:57 35.06496 32.96230 37182 ft 475 kts 288°
2026-04-28 16:57 35.07570 32.92461 37336 ft 474 kts 288°
2026-04-28 16:58 35.08644 32.88688 37490 ft 473 kts 288°
2026-04-28 16:58 35.09727 32.84877 37626 ft 472 kts 288°
2026-04-28 16:58 35.10806 32.81076 37790 ft 471 kts 288°
2026-04-28 16:58 35.11874 32.77305 37907 ft 471 kts 288°
2026-04-28 16:59 35.12953 32.73487 38048 ft 470 kts 288°
2026-04-28 16:59 35.14019 32.69709 38184 ft 470 kts 288°
2026-04-28 16:59 35.15067 32.65985 38306 ft 469 kts 288°
2026-04-28 16:59 35.15913 32.62203 38219 ft 454 kts 283°
2026-04-28 17:00 35.16739 32.58516 37763 ft 445 kts 286°
2026-04-28 17:00 35.17648 32.54903 36779 ft 449 kts 287°
2026-04-28 17:00 35.18594 32.51270 35721 ft 453 kts 288°
2026-04-28 17:00 35.19561 32.47592 34934 ft 457 kts 288°
2026-04-28 17:01 35.20528 32.43928 34027 ft 459 kts 288°
2026-04-28 17:01 35.22492 32.36486 34062 ft 466 kts 288°
2026-04-28 17:01 35.23488 32.32706 33845 ft 475 kts 287°
2026-04-28 17:02 35.24498 32.28866 34013 ft 473 kts 287°
2026-04-28 17:02 35.26509 32.21203 33932 ft 466 kts 287°
2026-04-28 17:03 35.29458 32.09922 33946 ft 467 kts 288°
2026-04-28 17:03 35.31438 32.02365 33949 ft 466 kts 288°
2026-04-28 17:04 35.34418 31.91032 33939 ft 466 kts 288°
2026-04-28 17:05 35.37367 31.79765 33942 ft 466 kts 288°
2026-04-28 17:06 35.40329 31.68395 33941 ft 466 kts 288°
2026-04-28 17:06 35.43265 31.57080 33945 ft 466 kts 288°
2026-04-28 17:07 35.45217 31.49530 33945 ft 466 kts 288°
2026-04-28 17:07 35.47163 31.41982 33947 ft 466 kts 288°
2026-04-28 17:08 35.49107 31.34422 33954 ft 466 kts 287°
2026-04-28 17:08 35.51041 31.26873 33948 ft 467 kts 287°
2026-04-28 17:09 35.52978 31.19291 33944 ft 467 kts 287°
2026-04-28 17:09 35.54909 31.11716 33943 ft 466 kts 287°
2026-04-28 17:10 35.56833 31.04141 33947 ft 466 kts 288°
2026-04-28 17:10 35.58754 30.96560 33945 ft 465 kts 288°
2026-04-28 17:11 35.60671 30.88967 33937 ft 464 kts 288°
2026-04-28 17:11 35.62593 30.81436 33933 ft 465 kts 288°
2026-04-28 17:12 35.64545 30.73883 33932 ft 466 kts 288°
2026-04-28 17:12 35.66495 30.66317 33930 ft 466 kts 288°
2026-04-28 17:13 35.68446 30.58722 33930 ft 466 kts 288°
2026-04-28 17:13 35.70377 30.51181 33927 ft 465 kts 288°
2026-04-28 17:14 35.72319 30.43576 33929 ft 466 kts 288°
2026-04-28 17:14 35.74253 30.35982 33920 ft 466 kts 288°
2026-04-28 17:15 35.76179 30.28395 33928 ft 465 kts 287°
2026-04-28 17:15 35.78098 30.20812 33934 ft 465 kts 287°
2026-04-28 17:16 35.80011 30.13236 33929 ft 465 kts 287°
2026-04-28 17:16 35.81911 30.05682 33930 ft 464 kts 287°
2026-04-28 17:17 35.83854 29.98085 33921 ft 464 kts 289°
2026-04-28 17:17 35.85894 29.90606 33922 ft 464 kts 289°
2026-04-28 17:18 35.87935 29.83081 33931 ft 463 kts 289°
2026-04-28 17:18 35.89975 29.75536 33925 ft 463 kts 289°
2026-04-28 17:19 35.92005 29.68008 33922 ft 464 kts 289°
2026-04-28 17:19 35.94030 29.60481 33924 ft 464 kts 289°
2026-04-28 17:20 35.95713 29.54207 33932 ft 463 kts 289°
2026-04-28 17:20 35.98075 29.45442 33932 ft 462 kts 289°
2026-04-28 17:21 36.00101 29.37894 33933 ft 464 kts 289°
2026-04-28 17:22 36.03133 29.26560 33945 ft 464 kts 289°
2026-04-28 17:22 36.05139 29.19035 33943 ft 464 kts 289°
2026-04-28 17:23 36.08149 29.07711 33938 ft 464 kts 289°
2026-04-28 17:23 36.10154 29.00133 33920 ft 464 kts 289°
2026-04-28 17:24 36.12154 28.92556 33935 ft 463 kts 289°
2026-04-28 17:24 36.14135 28.85029 33932 ft 462 kts 289°
2026-04-28 17:25 36.17110 28.73676 33937 ft 463 kts 289°
2026-04-28 17:26 36.17818 28.70972 33936 ft 463 kts 289°
2026-04-28 17:27 36.18622 28.67894 33929 ft 463 kts 289°
2026-04-28 17:33 36.19671 28.63878 33933 ft 463 kts 289°
2026-04-28 17:33 36.21317 28.57561 33933 ft 464 kts 289°
2026-04-28 17:34 36.23609 28.48728 33929 ft 463 kts 289°
2026-04-28 17:34 36.25565 28.41145 33926 ft 463 kts 289°
2026-04-28 17:35 36.27508 28.33587 33928 ft 462 kts 288°
2026-04-28 17:35 36.29449 28.26018 33930 ft 461 kts 288°
2026-04-28 17:36 36.31387 28.18436 33935 ft 462 kts 288°
2026-04-28 17:36 36.33325 28.10832 33930 ft 463 kts 288°
2026-04-28 17:37 36.34662 28.03055 33945 ft 463 kts 281°
2026-04-28 17:37 36.35684 27.95161 33940 ft 464 kts 281°
2026-04-28 17:38 36.36706 27.87222 33944 ft 463 kts 281°
2026-04-28 17:38 36.37719 27.79319 33946 ft 465 kts 281°
2026-04-28 17:39 36.38723 27.71438 33948 ft 465 kts 281°
2026-04-28 17:40 36.40222 27.59532 33945 ft 465 kts 281°
2026-04-28 17:40 36.41211 27.51617 33950 ft 464 kts 281°
2026-04-28 17:41 36.42192 27.43734 33957 ft 463 kts 281°
2026-04-28 17:41 36.43171 27.35817 33958 ft 464 kts 281°
2026-04-28 17:42 36.44142 27.27927 33970 ft 464 kts 281°
2026-04-28 17:42 36.45113 27.19983 33975 ft 465 kts 281°
2026-04-28 17:43 36.46071 27.12099 33973 ft 465 kts 281°
2026-04-28 17:43 36.47035 27.04149 33975 ft 465 kts 281°
2026-04-28 17:44 36.48004 26.96214 33976 ft 465 kts 281°
2026-04-28 17:44 36.48968 26.88242 33977 ft 465 kts 281°
2026-04-28 17:45 36.49912 26.80301 33987 ft 464 kts 281°
2026-04-28 17:45 36.50851 26.72368 33982 ft 464 kts 281°
2026-04-28 17:46 36.51784 26.64427 33991 ft 464 kts 281°
2026-04-28 17:46 36.52707 26.56533 33988 ft 465 kts 281°
2026-04-28 17:47 36.53634 26.48553 34000 ft 465 kts 281°
2026-04-28 17:47 36.54549 26.40625 34001 ft 464 kts 282°
2026-04-28 17:48 36.55464 26.32646 34003 ft 465 kts 281°
2026-04-28 17:48 36.56428 26.24597 33997 ft 462 kts 285°
2026-04-28 17:48 36.57589 26.20827 34007 ft 456 kts 300°
2026-04-28 17:49 36.59127 26.17324 34025 ft 457 kts 300°
2026-04-28 17:49 36.62130 26.10411 34015 ft 455 kts 300°
2026-04-28 17:50 36.65084 26.03591 34011 ft 427 kts 300°
2026-04-28 17:50 36.66464 26.00398 34004 ft 407 kts 301°
2026-04-28 17:50 36.67777 25.97357 33997 ft 388 kts 301°
2026-04-28 17:50 36.69028 25.94462 33991 ft 371 kts 301°
2026-04-28 17:51 36.70229 25.91683 33989 ft 354 kts 301°
2026-04-28 17:51 36.71360 25.89058 34002 ft 338 kts 301°
2026-04-28 17:51 36.72446 25.86537 33992 ft 323 kts 301°
2026-04-28 17:51 36.73483 25.84130 34001 ft 308 kts 301°
2026-04-28 17:52 36.74477 25.81817 33994 ft 294 kts 301°
2026-04-28 17:52 36.75411 25.79645 34005 ft 279 kts 302°
2026-04-28 17:52 36.77149 25.75596 34010 ft 251 kts 302°
2026-04-28 17:53 36.77951 25.73727 33939 ft 242 kts 302°
2026-04-28 17:53 36.78766 25.71835 33713 ft 257 kts 302°
2026-04-28 17:53 36.79625 25.69851 34012 ft 258 kts 302°
2026-04-28 17:53 36.80445 25.67940 34702 ft 241 kts 302°
2026-04-28 17:54 36.81215 25.66126 35024 ft 238 kts 301°
2026-04-28 17:54 36.82012 25.64250 34949 ft 254 kts 301°
2026-04-28 17:54 36.82853 25.62271 35043 ft 260 kts 301°
2026-04-28 17:54 36.83676 25.60325 35485 ft 251 kts 301°
2026-04-28 17:55 36.84467 25.58434 35880 ft 244 kts 300°
2026-04-28 17:55 36.85258 25.56532 35984 ft 250 kts 300°
2026-04-28 17:55 36.86080 25.54555 36015 ft 259 kts 300°
2026-04-28 17:55 36.86907 25.52559 36279 ft 258 kts 300°
2026-04-28 17:56 36.87708 25.50610 36700 ft 251 kts 300°
2026-04-28 17:56 36.88498 25.48677 36953 ft 251 kts 299°
2026-04-28 17:56 36.89301 25.46704 37004 ft 258 kts 299°
2026-04-28 17:56 36.90109 25.44712 37140 ft 262 kts 299°
2026-04-28 17:57 36.90928 25.42683 37483 ft 257 kts 299°
2026-04-28 17:57 36.91722 25.40702 37775 ft 255 kts 298°
2026-04-28 17:57 36.92509 25.38728 37881 ft 259 kts 298°
2026-04-28 17:57 36.93319 25.36690 37981 ft 263 kts 298°
2026-04-28 17:58 36.94124 25.34654 38242 ft 261 kts 297°
2026-04-28 17:58 36.94920 25.32629 38552 ft 258 kts 297°
2026-04-28 17:58 36.95704 25.30621 38713 ft 260 kts 297°
2026-04-28 17:58 36.96506 25.28560 38782 ft 264 kts 297°
2026-04-28 17:59 36.97304 25.26499 38969 ft 264 kts 297°
2026-04-28 17:59 36.98123 25.24370 39224 ft 262 kts 296°
2026-04-28 17:59 36.98939 25.22238 39382 ft 263 kts 296°
2026-04-28 17:59 36.99748 25.20113 39472 ft 266 kts 296°
2026-04-28 18:00 37.00587 25.17898 39631 ft 267 kts 296°
2026-04-28 18:00 37.01415 25.15698 39819 ft 266 kts 296°
2026-04-28 18:00 37.02237 25.13502 40000 ft 266 kts 296°
2026-04-28 18:00 37.03053 25.11309 40116 ft 268 kts 296°
2026-04-28 18:01 37.03882 25.09070 40226 ft 270 kts 296°
2026-04-28 18:01 37.04706 25.06832 40395 ft 269 kts 295°
2026-04-28 18:01 37.05526 25.04590 40622 ft 267 kts 296°
2026-04-28 18:01 37.06335 25.02366 40748 ft 267 kts 295°
2026-04-28 18:02 37.07148 25.00116 40794 ft 271 kts 295°
2026-04-28 18:02 37.07963 24.97853 40893 ft 272 kts 295°
2026-04-28 18:02 37.08788 24.95608 41052 ft 272 kts 303°
2026-04-28 18:02 37.10139 24.93788 40779 ft 289 kts 323°
2026-04-28 18:03 37.12073 24.92662 40929 ft 293 kts 342°
2026-04-28 18:03 37.14157 24.92415 41500 ft 286 kts 358°
2026-04-28 18:03 37.16267 24.92914 41606 ft 296 kts
2026-04-28 18:03 37.18368 24.93487 41130 ft 306 kts 349°
2026-04-28 18:04 37.20464 24.92655 40592 ft 309 kts 316°
2026-04-28 18:04 37.21753 24.90495 40811 ft 298 kts 287°
2026-04-28 18:04 37.21883 24.87872 41253 ft 293 kts 259°
2026-04-28 18:04 37.21028 24.85414 41525 ft 299 kts 241°
2026-04-28 18:05 37.19512 24.83380 41594 ft 310 kts 229°
2026-04-28 18:05 37.18361 24.82238 41637 ft 315 kts 223°
2026-04-28 18:05 37.15675 24.80102 40600 ft 364 kts 219°
2026-04-28 18:05 37.13480 24.78074 39651 ft 395 kts 230°
2026-04-28 18:06 37.11853 24.75135 39199 ft 399 kts 254°
2026-04-28 18:06 37.11292 24.71533 38836 ft 408 kts 272°
2026-04-28 18:06 37.11724 24.67815 38522 ft 419 kts 290°
2026-04-28 18:06 37.12989 24.64337 38274 ft 427 kts 298°
2026-04-28 18:07 37.14514 24.60959 38764 ft 414 kts 309°
2026-04-28 18:07 37.16608 24.58388 39476 ft 404 kts 320°
2026-04-28 18:07 37.19108 24.56283 38824 ft 411 kts 326°
2026-04-28 18:07 37.21629 24.54275 38406 ft 403 kts 326°
2026-04-28 18:08 37.24119 24.52288 37961 ft 396 kts 326°
2026-04-28 18:08 37.26462 24.50417 37541 ft 390 kts 326°
2026-04-28 18:08 37.28790 24.48550 37111 ft 394 kts 326°
2026-04-28 18:08 37.30950 24.46260 36665 ft 417 kts 311°
2026-04-28 18:09 37.32663 24.43178 36209 ft 440 kts 302°
2026-04-28 18:09 37.34164 24.39826 35857 ft 441 kts 300°
2026-04-28 18:09 37.34329 24.39441 35816 ft 440 kts 300°
2026-04-28 18:11 37.34415 24.39239 35795 ft 440 kts 300°
2026-04-28 18:12 37.35817 24.35907 35375 ft 428 kts 299°
2026-04-28 18:12 37.36126 24.35165 35303 ft 426 kts 299°
2026-04-28 18:13 37.36908 24.33277 35112 ft 420 kts 298°
2026-04-28 18:13 37.37867 24.30949 34903 ft 413 kts 298°
2026-04-28 18:13 37.39164 24.27792 34584 ft 402 kts 298°
2026-04-28 18:14 37.40440 24.24682 34384 ft 406 kts 299°
2026-04-28 18:14 37.41727 24.21547 34062 ft 399 kts 299°
2026-04-28 18:14 37.42981 24.18493 34054 ft 386 kts 299°
2026-04-28 18:14 37.44197 24.15518 34090 ft 382 kts 299°
2026-04-28 18:15 37.46594 24.09649 34102 ft 382 kts 299°
2026-04-28 18:15 37.47311 24.07892 34120 ft 391 kts 299°
2026-04-28 18:22 37.48985 24.03782 34480 ft 398 kts 299°
2026-04-28 18:23 37.49995 24.01295 35922 ft 363 kts 298°
2026-04-28 18:25 37.50441 24.00198 36523 ft 352 kts 298°
2026-04-28 18:26 37.52698 23.94645 36775 ft 375 kts 298°
2026-04-28 18:26 37.53909 23.91657 36571 ft 391 kts 298°
2026-04-28 18:26 37.55163 23.88563 36386 ft 406 kts 298°
2026-04-28 18:26 37.56453 23.85375 36164 ft 413 kts 298°
2026-04-28 18:27 37.57754 23.82157 35979 ft 404 kts 298°
2026-04-28 18:27 37.59002 23.79066 35791 ft 397 kts 298°
2026-04-28 18:27 37.60254 23.75964 35616 ft 397 kts 298°
2026-04-28 18:27 37.61505 23.72862 35442 ft 400 kts 298°
2026-04-28 18:28 37.62772 23.69718 35265 ft 401 kts 298°
2026-04-28 18:28 37.64016 23.66621 35092 ft 402 kts 298°
2026-04-28 18:28 37.65292 23.63448 34913 ft 403 kts 298°
2026-04-28 18:28 37.66553 23.60306 34745 ft 405 kts 298°
2026-04-28 18:29 37.67837 23.57111 34577 ft 420 kts 298°
2026-04-28 18:29 37.69185 23.53749 34416 ft 436 kts 298°
2026-04-28 18:29 37.70557 23.50316 34221 ft 443 kts 298°
2026-04-28 18:29 37.71941 23.46857 34063 ft 441 kts 298°
2026-04-28 18:30 37.73306 23.43440 34071 ft 437 kts 298°
2026-04-28 18:30 37.76055 23.36543 34075 ft 439 kts 298°
2026-04-28 18:31 37.78799 23.29648 34079 ft 446 kts 297°
2026-04-28 18:31 37.81596 23.22602 34076 ft 450 kts 297°
2026-04-28 18:32 37.84403 23.15518 34078 ft 449 kts 297°
2026-04-28 18:32 37.87181 23.08487 34098 ft 451 kts 297°
2026-04-28 18:33 37.89975 23.01402 34114 ft 451 kts 297°
2026-04-28 18:33 37.92765 22.94311 34107 ft 452 kts 298°
2026-04-28 18:34 37.96251 22.87721 34106 ft 452 kts 306°
2026-04-28 18:34 37.99865 22.81212 34082 ft 451 kts 306°
2026-04-28 18:35 38.03446 22.74701 34068 ft 450 kts 306°
2026-04-28 18:35 38.06992 22.68236 34075 ft 450 kts 306°
2026-04-28 18:36 38.10566 22.61712 34084 ft 449 kts 306°
2026-04-28 18:36 38.14143 22.55170 34082 ft 451 kts 306°
2026-04-28 18:37 38.17698 22.48654 34084 ft 450 kts 306°
2026-04-28 18:37 38.21245 22.42141 34084 ft 451 kts 306°
2026-04-28 18:38 38.24814 22.35573 34081 ft 450 kts 306°
2026-04-28 18:38 38.28339 22.29076 34102 ft 450 kts 305°
2026-04-28 18:39 38.31892 22.22510 34112 ft 450 kts 305°
2026-04-28 18:39 38.35401 22.16012 34114 ft 433 kts 305°
2026-04-28 18:40 38.38791 22.09722 34131 ft 441 kts 305°
2026-04-28 18:40 38.42331 22.03139 34118 ft 460 kts 305°
2026-04-28 18:41 38.45944 21.96408 34112 ft 455 kts 304°
2026-04-28 18:41 38.49504 21.89761 34113 ft 451 kts 304°
2026-04-28 18:41 38.51237 21.86521 34116 ft 440 kts 304°
2026-04-28 18:42 38.52947 21.83318 34104 ft 420 kts 304°
2026-04-28 18:42 38.54538 21.80337 34108 ft 405 kts 305°
2026-04-28 18:42 38.56122 21.77364 34118 ft 405 kts 304°
2026-04-28 18:43 38.59330 21.71338 34125 ft 411 kts 305°
2026-04-28 18:43 38.62536 21.65302 34118 ft 411 kts 305°
2026-04-28 18:44 38.65752 21.59240 34126 ft 424 kts 305°
2026-04-28 18:44 38.69148 21.52823 34119 ft 447 kts 304°
2026-04-28 18:44 38.70921 21.49466 34116 ft 457 kts 304°
2026-04-28 18:45 38.74499 21.42688 34108 ft 458 kts 304°
2026-04-28 18:45 38.78033 21.35980 34103 ft 451 kts 304°
2026-04-28 18:46 38.81545 21.29298 34108 ft 452 kts 304°
2026-04-28 18:46 38.85048 21.22620 34109 ft 452 kts 304°
2026-04-28 18:47 38.88573 21.15885 34108 ft 453 kts 304°
2026-04-28 18:47 38.92067 21.09197 34102 ft 452 kts 304°
2026-04-28 18:48 38.95555 21.02507 34094 ft 453 kts 304°
2026-04-28 18:48 38.99065 20.95760 34086 ft 454 kts 304°
2026-04-28 18:49 39.01380 20.91300 34082 ft 454 kts 304°
2026-04-28 18:49 39.06028 20.82326 34080 ft 452 kts 304°
2026-04-28 18:50 39.09526 20.75556 34079 ft 453 kts 304°
2026-04-28 18:50 39.12980 20.68858 34086 ft 452 kts 304°
2026-04-28 18:51 39.16449 20.62114 34091 ft 452 kts 304°
2026-04-28 18:51 39.19937 20.55320 34083 ft 453 kts 304°
2026-04-28 18:52 39.23398 20.48565 34081 ft 452 kts 304°
2026-04-28 18:52 39.26861 20.41791 34082 ft 452 kts 304°
2026-04-28 18:53 39.30306 20.35040 34084 ft 452 kts 304°
2026-04-28 18:53 39.33751 20.28272 34085 ft 451 kts 303°
2026-04-28 18:54 39.37177 20.21529 34079 ft 452 kts 303°
2026-04-28 18:54 39.40619 20.14738 34077 ft 450 kts 303°
2026-04-28 18:55 39.43469 20.09105 34075 ft 452 kts 303°
2026-04-28 18:55 39.47741 20.01485 34080 ft 450 kts 307°
2026-04-28 18:56 39.51505 19.95011 34072 ft 451 kts 307°
2026-04-28 18:56 39.55276 19.88489 34065 ft 452 kts 307°
2026-04-28 18:57 39.59024 19.81994 34068 ft 452 kts 307°
2026-04-28 18:57 39.62797 19.75442 34073 ft 453 kts 307°
2026-04-28 18:58 39.66546 19.68916 34075 ft 453 kts 307°
2026-04-28 18:58 39.70300 19.62369 34076 ft 452 kts 307°
2026-04-28 18:59 39.74035 19.55840 34078 ft 453 kts 307°
2026-04-28 18:59 39.77783 19.49277 34074 ft 453 kts 307°
2026-04-28 19:00 39.81516 19.42727 34073 ft 452 kts 307°
2026-04-28 19:00 39.85249 19.36162 34070 ft 454 kts 307°
2026-04-28 19:01 39.89002 19.29549 34080 ft 453 kts 306°
2026-04-28 19:01 39.92726 19.22972 34076 ft 453 kts 306°
2026-04-28 19:02 39.96466 19.16354 34068 ft 455 kts 306°
2026-04-28 19:02 40.00203 19.09726 34068 ft 455 kts 306°
2026-04-28 19:03 40.03929 19.03106 34060 ft 455 kts 306°
2026-04-28 19:03 40.07057 18.95976 34062 ft 455 kts 292°
2026-04-28 19:04 40.09470 18.88355 34066 ft 457 kts 293°
2026-04-28 19:04 40.11929 18.80754 34062 ft 455 kts 293°
2026-04-28 19:05 40.14384 18.73162 34058 ft 455 kts 293°
2026-04-28 19:05 40.16832 18.65570 34045 ft 455 kts 293°
2026-04-28 19:06 40.18862 18.59261 34061 ft 456 kts 293°
2026-04-28 19:06 40.21723 18.50345 34051 ft 454 kts 293°
2026-04-28 19:07 40.24152 18.42753 34055 ft 456 kts 293°
2026-04-28 19:07 40.26586 18.35121 34055 ft 456 kts 293°
2026-04-28 19:08 40.29028 18.27446 34046 ft 456 kts 292°
2026-04-28 19:08 40.31461 18.19782 34041 ft 457 kts 292°
2026-04-28 19:09 40.33887 18.12112 34031 ft 455 kts 292°
2026-04-28 19:09 40.36287 18.04502 34035 ft 455 kts 292°
2026-04-28 19:10 40.38694 17.96852 34047 ft 455 kts 292°
2026-04-28 19:10 40.41103 17.89176 34032 ft 456 kts 292°
2026-04-28 19:11 40.43496 17.81525 34034 ft 456 kts 292°
2026-04-28 19:11 40.45900 17.73818 34041 ft 456 kts 292°
2026-04-28 19:12 40.48283 17.66160 34027 ft 456 kts 292°
2026-04-28 19:12 40.50671 17.58456 34035 ft 454 kts 292°
2026-04-28 19:13 40.53046 17.50781 34044 ft 454 kts 292°
2026-04-28 19:13 40.55407 17.43124 34040 ft 454 kts 292°
2026-04-28 19:14 40.57779 17.35412 34026 ft 454 kts 292°
2026-04-28 19:14 40.60137 17.27723 34040 ft 455 kts 292°
2026-04-28 19:15 40.62497 17.20005 34042 ft 454 kts 292°
2026-04-28 19:15 40.64446 17.13617 34047 ft 454 kts 292°
2026-04-28 19:16 40.67171 17.04652 34049 ft 454 kts 292°
2026-04-28 19:16 40.69499 16.96974 34050 ft 453 kts 292°
2026-04-28 19:17 40.71818 16.89302 34048 ft 452 kts 292°
2026-04-28 19:17 40.74131 16.81629 34051 ft 452 kts 292°
2026-04-28 19:18 40.76450 16.73912 34042 ft 452 kts 292°
2026-04-28 19:18 40.78762 16.66198 34046 ft 453 kts 292°
2026-04-28 19:19 40.81078 16.58445 34056 ft 454 kts 292°
2026-04-28 19:19 40.83385 16.50699 34053 ft 453 kts 292°
2026-04-28 19:20 40.85672 16.43003 34060 ft 453 kts 292°
2026-04-28 19:20 40.87959 16.35279 34053 ft 453 kts 292°
2026-04-28 19:21 40.90241 16.27552 34076 ft 452 kts 291°
2026-04-28 19:21 40.92509 16.19852 34065 ft 451 kts 291°
2026-04-28 19:22 40.94403 16.13401 34059 ft 452 kts 291°
2026-04-28 19:22 40.97378 16.04549 34049 ft 453 kts 295°
2026-04-28 19:23 41.00079 15.97023 34039 ft 453 kts 295°
2026-04-28 19:23 41.02722 15.89593 34037 ft 452 kts 295°
2026-04-28 19:24 41.05376 15.82109 34039 ft 452 kts 295°
2026-04-28 19:24 41.08036 15.74589 34046 ft 451 kts 295°
2026-04-28 19:25 41.10698 15.67043 34037 ft 452 kts 295°
2026-04-28 19:25 41.13344 15.59521 34031 ft 452 kts 295°
2026-04-28 19:26 41.15989 15.51985 34050 ft 452 kts 295°
2026-04-28 19:26 41.18631 15.44433 34060 ft 452 kts 295°
2026-04-28 19:27 41.21263 15.36892 34063 ft 451 kts 295°
2026-04-28 19:27 41.23917 15.29268 34056 ft 452 kts 295°
2026-04-28 19:28 41.26550 15.21685 34058 ft 452 kts 295°
2026-04-28 19:28 41.29173 15.14106 34059 ft 453 kts 295°
2026-04-28 19:29 41.31355 15.07785 34070 ft 452 kts 295°
2026-04-28 19:29 41.34416 14.98898 34058 ft 451 kts 295°
2026-04-28 19:30 41.37016 14.91328 34055 ft 452 kts 295°
2026-04-28 19:30 41.39621 14.83722 34073 ft 452 kts 295°
2026-04-28 19:31 41.42225 14.76097 34073 ft 451 kts 295°
2026-04-28 19:31 41.44807 14.68514 34083 ft 452 kts 295°
2026-04-28 19:32 41.47400 14.60884 34073 ft 452 kts 295°
2026-04-28 19:32 41.49983 14.53258 34068 ft 452 kts 295°
2026-04-28 19:33 41.52544 14.45677 34067 ft 451 kts 295°
2026-04-28 19:33 41.55103 14.38079 34080 ft 451 kts 295°
2026-04-28 19:34 41.57682 14.30403 34095 ft 451 kts 294°
2026-04-28 19:34 41.59392 14.25301 34103 ft 451 kts 294°
2026-04-28 19:35 41.61944 14.17668 34097 ft 451 kts 294°
2026-04-28 19:35 41.64487 14.10044 34101 ft 451 kts 294°
2026-04-28 19:36 41.67038 14.02371 34106 ft 451 kts 294°
2026-04-28 19:36 41.68106 13.99155 34103 ft 451 kts 294°
2026-04-28 19:37 41.69590 13.94677 34106 ft 451 kts 294°
2026-04-28 19:37 41.72554 13.85711 34117 ft 452 kts 294°
2026-04-28 19:38 41.75082 13.78044 34126 ft 451 kts 294°
2026-04-28 19:38 41.77601 13.70378 34127 ft 450 kts 294°
2026-04-28 19:39 41.80115 13.62710 34127 ft 451 kts 294°
2026-04-28 19:39 41.82691 13.54828 34117 ft 451 kts 294°
2026-04-28 19:40 41.85184 13.47179 34097 ft 451 kts 294°
2026-04-28 19:40 41.87686 13.39480 34094 ft 451 kts 294°
2026-04-28 19:41 41.90261 13.31531 34106 ft 451 kts 293°
2026-04-28 19:41 41.92862 13.23484 34116 ft 450 kts 293°
2026-04-28 19:42 41.95383 13.15653 34110 ft 451 kts 293°
2026-04-28 19:42 41.97427 13.09152 34095 ft 451 kts 293°
2026-04-28 19:43 42.00263 13.00065 34083 ft 451 kts 293°
2026-04-28 19:43 42.02685 12.92275 34073 ft 451 kts 293°
2026-04-28 19:44 42.05101 12.84486 34063 ft 451 kts 292°
2026-04-28 19:44 42.07512 12.76685 34057 ft 451 kts 292°
2026-04-28 19:45 42.09920 12.68869 34047 ft 451 kts 292°
2026-04-28 19:45 42.12319 12.61064 34057 ft 452 kts 292°
2026-04-28 19:46 42.14710 12.53260 34052 ft 451 kts 292°
2026-04-28 19:46 42.17095 12.45452 34056 ft 452 kts 292°
2026-04-28 19:47 42.19481 12.37617 34048 ft 452 kts 292°
2026-04-28 19:47 42.21847 12.29824 34045 ft 452 kts 292°
2026-04-28 19:48 42.26440 12.14633 34036 ft 451 kts 292°
2026-04-28 19:49 42.28789 12.06828 34034 ft 452 kts 292°
2026-04-28 19:49 42.31142 11.98986 34038 ft 452 kts 292°
2026-04-28 19:50 42.34666 11.87197 34037 ft 452 kts 292°
2026-04-28 19:51 42.37005 11.79347 34039 ft 452 kts 292°
2026-04-28 19:51 42.39350 11.71445 34035 ft 453 kts 292°
2026-04-28 19:52 42.41677 11.63587 34035 ft 453 kts 292°
2026-04-28 19:52 42.44015 11.55662 34040 ft 454 kts 292°
2026-04-28 19:53 42.46361 11.47688 34030 ft 453 kts 292°
2026-04-28 19:53 42.48687 11.39757 34032 ft 453 kts 292°
2026-04-28 19:54 42.51012 11.31804 34033 ft 454 kts 291°
2026-04-28 19:54 42.53332 11.23848 34038 ft 452 kts 291°
2026-04-28 19:55 42.55625 11.15953 34039 ft 452 kts 291°
2026-04-28 19:55 42.57929 11.08000 34038 ft 453 kts 291°
2026-04-28 19:56 42.60217 11.00076 34033 ft 453 kts 291°
2026-04-28 19:56 42.62511 10.92106 34035 ft 453 kts 291°
2026-04-28 19:57 42.64795 10.84146 34033 ft 454 kts 291°
2026-04-28 19:57 42.67081 10.76155 34036 ft 454 kts 291°
2026-04-28 19:58 42.69347 10.68208 34029 ft 454 kts 291°
2026-04-28 19:58 42.71629 10.60179 34025 ft 454 kts 291°
2026-04-28 19:59 42.73894 10.52183 34022 ft 453 kts 291°
2026-04-28 19:59 42.76152 10.44190 34017 ft 454 kts 291°
2026-04-28 20:00 42.78407 10.36178 34015 ft 453 kts 291°
2026-04-28 20:00 42.80655 10.28167 34009 ft 453 kts 290°
2026-04-28 20:01 42.82894 10.20165 34020 ft 454 kts 290°
2026-04-28 20:01 42.85126 10.12155 34007 ft 454 kts 290°
2026-04-28 20:02 42.87355 10.04137 34004 ft 454 kts 290°
2026-04-28 20:02 42.89582 9.96097 34005 ft 453 kts 290°
2026-04-28 20:03 42.91810 9.88032 34007 ft 454 kts 290°
2026-04-28 20:03 42.94029 9.79971 34001 ft 454 kts 290°
2026-04-28 20:04 42.96350 9.72010 33995 ft 454 kts 295°
2026-04-28 20:04 42.99068 9.64257 33994 ft 455 kts 295°
2026-04-28 20:05 43.01743 9.56430 33999 ft 454 kts 294°
2026-04-28 20:05 43.04396 9.48626 33997 ft 453 kts 294°
2026-04-28 20:06 43.07029 9.40854 33991 ft 453 kts 294°
2026-04-28 20:06 43.09675 9.33022 33993 ft 454 kts 294°
2026-04-28 20:07 43.12307 9.25211 34000 ft 454 kts 294°
2026-04-28 20:07 43.14927 9.17410 33997 ft 454 kts 293°
2026-04-28 20:08 43.17554 9.09558 33996 ft 455 kts 293°
2026-04-28 20:08 43.20173 9.01709 33994 ft 454 kts 293°
2026-04-28 20:09 43.22774 8.93889 33507 ft 444 kts 293°
2026-04-28 20:09 43.24035 8.90101 32210 ft 450 kts 293°
2026-04-28 20:09 43.25341 8.86171 30779 ft 455 kts 293°
2026-04-28 20:09 43.26640 8.82254 29421 ft 459 kts 293°
2026-04-28 20:10 43.27951 8.78298 28099 ft 460 kts 293°
2026-04-28 20:10 43.29258 8.74349 26831 ft 461 kts 293°
2026-04-28 20:10 43.30580 8.70347 25577 ft 460 kts 293°
2026-04-28 20:10 43.31887 8.66387 24391 ft 457 kts 293°
2026-04-28 20:11 43.33136 8.62594 22884 ft 432 kts 292°
2026-04-28 20:11 43.33991 8.58829 21376 ft 408 kts 277°
2026-04-28 20:11 43.33991 8.55055 19888 ft 389 kts 262°
2026-04-28 20:11 43.33633 8.51539 19809 ft 352 kts 262°
2026-04-28 20:12 43.33351 8.48472 20497 ft 313 kts 262°
2026-04-28 20:12 43.33087 8.45477 19456 ft 331 kts 263°
2026-04-28 20:12 43.32816 8.42308 18753 ft 332 kts 263°
2026-04-28 20:12 43.32553 8.39210 18229 ft 327 kts 263°
2026-04-28 20:13 43.32291 8.36124 17625 ft 326 kts 263°
2026-04-28 20:13 43.32030 8.33041 17065 ft 324 kts 262°
2026-04-28 20:13 43.31773 8.30014 16466 ft 323 kts 262°
2026-04-28 20:13 43.31516 8.27000 15777 ft 319 kts 262°
2026-04-28 20:14 43.31258 8.23985 14983 ft 317 kts 262°
2026-04-28 20:14 43.31002 8.20991 14227 ft 313 kts 262°
2026-04-28 20:14 43.30751 8.18059 13192 ft 311 kts 262°
2026-04-28 20:14 43.30502 8.15170 12155 ft 309 kts 262°
2026-04-28 20:15 43.30255 8.12294 11168 ft 306 kts 263°
2026-04-28 20:15 43.30380 8.09407 10150 ft 305 kts 285°
2026-04-28 20:15 43.31285 8.06842 9176 ft 304 kts 302°
2026-04-28 20:15 43.32394 8.04442 8260 ft 299 kts 300°
2026-04-28 20:16 43.33446 8.02028 7346 ft 296 kts 299°
2026-04-28 20:16 43.34479 7.99593 6409 ft 293 kts 298°
2026-04-28 20:16 43.35469 7.97225 5552 ft 289 kts 298°
2026-04-28 20:16 43.36453 7.94853 4698 ft 284 kts 299°
2026-04-28 20:17 43.37190 7.92407 3987 ft 278 kts 278°
2026-04-28 20:17 43.37345 7.89764 4083 ft 278 kts 273°
2026-04-28 20:17 43.37475 7.87082 3974 ft 282 kts 273°
2026-04-28 20:17 43.37602 7.84414 3966 ft 281 kts 273°
2026-04-28 20:18 43.37727 7.81747 3983 ft 283 kts 274°
2026-04-28 20:18 43.37812 7.79921 3979 ft 282 kts 274°
2026-04-28 20:18 43.37975 7.76377 3972 ft 282 kts 274°
2026-04-28 20:18 43.38099 7.73655 3963 ft 281 kts 274°
2026-04-28 20:19 43.38216 7.70967 3986 ft 281 kts 274°
2026-04-28 20:19 43.38333 7.68303 3985 ft 278 kts 274°
2026-04-28 20:19 43.38443 7.65735 3342 ft 272 kts 274°
2026-04-28 20:19 43.38538 7.63128 2923 ft 273 kts 274°
2026-04-28 20:20 43.38629 7.60517 3055 ft 278 kts 274°
2026-04-28 20:20 43.38727 7.57842 2963 ft 278 kts 274°
2026-04-28 20:20 43.38825 7.55206 2983 ft 279 kts 274°
2026-04-28 20:20 43.38926 7.52560 2981 ft 278 kts 274°
2026-04-28 20:21 43.39028 7.49885 2982 ft 279 kts 274°
2026-04-28 20:21 43.39131 7.47214 2983 ft 280 kts 274°
2026-04-28 20:21 43.39233 7.44541 2985 ft 279 kts 274°
2026-04-28 20:21 43.39334 7.41883 2979 ft 275 kts 274°
2026-04-28 20:22 43.39426 7.39348 2378 ft 268 kts 274°
2026-04-28 20:22 43.39521 7.36838 1928 ft 251 kts 278°
2026-04-28 20:22 43.39830 7.34662 1988 ft 220 kts 283°
2026-04-28 20:22 43.40140 7.32654 1969 ft 210 kts 283°
2026-04-28 20:23 43.40440 7.30696 1980 ft 210 kts 283°
2026-04-28 20:23 43.40745 7.28708 1985 ft 211 kts 283°
2026-04-28 20:23 43.41044 7.26748 1984 ft 211 kts 283°
2026-04-28 20:23 43.41350 7.24768 1986 ft 211 kts 283°
2026-04-28 20:24 43.41657 7.22799 1986 ft 211 kts 283°
2026-04-28 20:24 43.41964 7.20840 1989 ft 212 kts 283°
2026-04-28 20:24 43.42394 7.18908 1987 ft 210 kts 296°
2026-04-28 20:24 43.43321 7.17411 1987 ft 206 kts 332°
2026-04-28 20:25 43.44639 7.16852 2008 ft 194 kts 353°
2026-04-28 20:25 43.45954 7.16585 2061 ft 186 kts 358°
2026-04-28 20:25 43.47264 7.16483 2006 ft 187 kts 359°
2026-04-28 20:25 43.48559 7.16512 1985 ft 186 kts
2026-04-28 20:26 43.49840 7.16560 1996 ft 184 kts
2026-04-28 20:26 43.51132 7.16607 1990 ft 184 kts
2026-04-28 20:26 43.52429 7.16653 1994 ft 186 kts
2026-04-28 20:26 43.53715 7.16700 1993 ft 186 kts
2026-04-28 20:27 43.55009 7.16743 1993 ft 186 kts
2026-04-28 20:27 43.56301 7.16781 1993 ft 186 kts
2026-04-28 20:27 43.57608 7.16815 1993 ft 188 kts
2026-04-28 20:27 43.58915 7.16847 1994 ft 188 kts
2026-04-28 20:28 43.60221 7.16892 2006 ft 187 kts
2026-04-28 20:28 43.61505 7.16960 2018 ft 181 kts
2026-04-28 20:28 43.62638 7.17323 1934 ft 154 kts 31°
2026-04-28 20:28 43.63451 7.18136 1545 ft 139 kts 40°
2026-04-28 20:29 43.64148 7.19012 1028 ft 138 kts 44°
2026-04-28 20:29 43.64828 7.19944 507 ft 137 kts 45°
2026-04-28 20:29 43.65477 7.20841 158 ft 126 kts 44°
2026-04-28 20:29 43.66156 7.21764 418 ft 156 kts 45°
2026-04-28 20:30 43.66963 7.22905 1185 ft 175 kts 46°
2026-04-28 20:30 43.67732 7.24223 2164 ft 186 kts 55°
2026-04-28 20:30 43.68380 7.25731 3200 ft 187 kts 63°
2026-04-28 20:30 43.68824 7.27348 3989 ft 186 kts 78°
2026-04-28 20:31 43.68684 7.29229 3785 ft 195 kts 111°
2026-04-28 20:31 43.68148 7.30733 3824 ft 151 kts 111°
2026-04-28 20:31 43.67658 7.31885 3697 ft 130 kts 112°
2026-04-28 20:31 43.67224 7.33134 3778 ft 163 kts 112°
2026-04-28 20:32 43.66757 7.34703 4065 ft 184 kts 110°
2026-04-28 20:32 43.66324 7.36360 4391 ft 184 kts 108°
2026-04-28 20:32 43.65930 7.38016 4729 ft 184 kts 106°
2026-04-28 20:32 43.65556 7.39698 5013 ft 186 kts 107°
2026-04-28 20:33 43.64751 7.41111 4907 ft 177 kts 142°
2026-04-28 20:33 43.63777 7.42123 4957 ft 173 kts 141°
2026-04-28 20:33 43.62801 7.43143 4991 ft 176 kts 141°
2026-04-28 20:33 43.61820 7.44144 4980 ft 176 kts 146°
2026-04-28 20:34 43.60642 7.44498 4984 ft 177 kts 181°
2026-04-28 20:34 43.59396 7.44362 5002 ft 182 kts 182°
2026-04-28 20:34 43.58083 7.44215 5007 ft 192 kts 182°
2026-04-28 20:34 43.56748 7.44064 4996 ft 193 kts 182°
2026-04-28 20:35 43.55417 7.43915 4991 ft 193 kts 182°
2026-04-28 20:35 43.54076 7.43764 4987 ft 193 kts 182°
2026-04-28 20:35 43.52740 7.43615 4986 ft 193 kts 182°
2026-04-28 20:35 43.51401 7.43469 4983 ft 193 kts 182°
2026-04-28 20:36 43.50055 7.43321 4989 ft 194 kts 182°
2026-04-28 20:36 43.48696 7.43172 4987 ft 195 kts 182°
2026-04-28 20:36 43.47344 7.43025 4985 ft 195 kts 182°
2026-04-28 20:36 43.46000 7.42872 4982 ft 194 kts 182°
2026-04-28 20:37 43.44664 7.42722 4983 ft 193 kts 182°
2026-04-28 20:37 43.43309 7.42567 4980 ft 193 kts 182°
2026-04-28 20:37 43.41972 7.42416 4983 ft 193 kts 182°
2026-04-28 20:37 43.40648 7.42269 4991 ft 192 kts 182°
2026-04-28 20:38 43.39304 7.42112 4981 ft 192 kts 182°
2026-04-28 20:38 43.37976 7.41955 4978 ft 193 kts 182°
2026-04-28 20:38 43.36632 7.41797 4978 ft 193 kts 182°
2026-04-28 20:38 43.35285 7.41637 4980 ft 193 kts 182°
2026-04-28 20:39 43.33953 7.41480 4979 ft 193 kts 182°
2026-04-28 20:39 43.32605 7.41319 4980 ft 193 kts 182°
2026-04-28 20:39 43.31240 7.41159 4997 ft 213 kts 182°
2026-04-28 20:39 43.29604 7.40976 4958 ft 256 kts 182°
2026-04-28 20:40 43.27732 7.40778 4987 ft 268 kts 184°
2026-04-28 20:40 43.26064 7.40015 4924 ft 248 kts 212°
2026-04-28 20:40 43.24985 7.38311 4936 ft 227 kts 245°
2026-04-28 20:40 43.24754 7.36273 4957 ft 215 kts 272°
2026-04-28 20:41 43.24835 7.34252 4972 ft 213 kts 272°
2026-04-28 20:41 43.24916 7.32217 4969 ft 212 kts 272°
2026-04-28 20:41 43.24995 7.30194 4978 ft 213 kts 272°
2026-04-28 20:41 43.25077 7.28148 4973 ft 214 kts 272°
2026-04-28 20:42 43.25159 7.26119 4971 ft 213 kts 272°
2026-04-28 20:42 43.25240 7.24111 4969 ft 213 kts 272°
2026-04-28 20:42 43.25351 7.22089 4974 ft 213 kts 278°
2026-04-28 20:42 43.25967 7.20279 4967 ft 210 kts 315°
2026-04-28 20:43 43.27208 7.19260 4998 ft 206 kts 342°
2026-04-28 20:43 43.28540 7.18612 4798 ft 203 kts 342°
2026-04-28 20:43 43.29873 7.17964 4459 ft 204 kts 342°
2026-04-28 20:43 43.31223 7.17462 4135 ft 201 kts
2026-04-28 20:44 43.32592 7.17711 3826 ft 198 kts 13°
2026-04-28 20:44 43.33939 7.18066 3520 ft 198 kts 13°
2026-04-28 20:44 43.35297 7.18422 3218 ft 197 kts 11°
2026-04-28 20:44 43.36678 7.18415 2918 ft 198 kts 358°
2026-04-28 20:45 43.38000 7.18286 2829 ft 184 kts 358°
2026-04-28 20:45 43.39193 7.18164 2841 ft 162 kts 358°
2026-04-28 20:45 43.40327 7.18045 2487 ft 164 kts 358°
2026-04-28 20:45 43.41447 7.17934 2216 ft 157 kts 358°
2026-04-28 20:46 43.42532 7.17826 1949 ft 156 kts 358°
2026-04-28 20:46 43.43640 7.17717 2014 ft 161 kts 358°
2026-04-28 20:46 43.44761 7.17611 1983 ft 161 kts 358°
2026-04-28 20:46 43.45874 7.17504 1991 ft 160 kts 358°
2026-04-28 20:47 43.46998 7.17391 1988 ft 161 kts 358°
2026-04-28 20:47 43.48108 7.17282 1989 ft 161 kts 358°
2026-04-28 20:47 43.49238 7.17168 1988 ft 161 kts 358°
2026-04-28 20:47 43.50349 7.17059 1990 ft 161 kts 358°
2026-04-28 20:48 43.51470 7.16944 1990 ft 161 kts 358°
2026-04-28 20:48 43.52588 7.16832 1991 ft 162 kts 358°
2026-04-28 20:48 43.53728 7.16722 1992 ft 161 kts 358°
2026-04-28 20:48 43.54790 7.16615 1966 ft 150 kts 358°
2026-04-28 20:49 43.55820 7.16512 1983 ft 143 kts 358°
2026-04-28 20:49 43.56795 7.16413 1967 ft 135 kts 358°
2026-04-28 20:49 43.57721 7.16319 1974 ft 132 kts 358°
2026-04-28 20:49 43.58637 7.16278 1958 ft 130 kts
2026-04-28 20:50 43.59547 7.16367 1865 ft 133 kts
2026-04-28 20:50 43.60453 7.16315 1742 ft 128 kts
2026-04-28 20:50 43.61359 7.16343 1568 ft 129 kts
2026-04-28 20:50 43.62245 7.16563 1329 ft 128 kts 18°
2026-04-28 20:51 43.62957 7.17278 1075 ft 127 kts 50°
2026-04-28 20:51 43.63523 7.18199 909 ft 127 kts 49°
2026-04-28 20:51 43.64179 7.19031 719 ft 128 kts 43°
2026-04-28 20:51 43.64819 7.19903 470 ft 129 kts 46°
2026-04-28 20:52 43.65458 7.20797 170 ft 131 kts 45°
2026-04-28 20:52 43.66107 7.21684 39 ft 136 kts 44°
2026-04-28 20:52 43.66783 7.22583 85 ft 124 kts 40°